Preview of NWS' New Version of Forecast
This preview is not operational and should not be used for support decisions.
Latest weather observations around

Bar Harbor, Hancock County-Bar Harbor Airport (KBHB)

Using English Units (Switch to International System of Units)
Date/ Time (EST) Wind (mph) Vis. (mi) Weather Sky Cond. Temp (°F) Rel. Humidity Wind Chill (°F) Heat Index (°F) Pressure Precip. (in)
Air Dwpt 6 hour Altimeter (inHg) Sea level (inHg) 1 hr 3 hr 6 hr
Max Min
Feb 25 19:56 SE 7 9 Unknown Precipitation OVC006 34 33     96% 28   30.09 30.1      
Feb 25 17:56 SE 7 6 Light Rain and Fog/Mist OVC008 33 32     96% 27   30.15 30.16      
Feb 25 16:56 SE 6 6 Light Rain and Fog/Mist BKN008 OVC012 33 32     96% 28   30.16 30.17      
Feb 25 14:56 SSE 10 2 Light Snow and Fog/Mist BKN006 OVC013 33 31     92% 25   30.22 30.23      
Feb 25 13:56 SE 13 10 Cloudy BKN026 OVC039 35 26     69% 26   30.22 30.23      
Feb 25 13:39 SE 7 10 Cloudy BKN026 OVC045 36 25     64% 30   30.24        
Feb 25 11:56 ESE 11 10 Cloudy SCT032 SCT065 OVC085 33 21     61% 24   30.3 30.31      
Feb 25 10:56 E 5 10 Mostly Cloudy SCT030 BKN110 30 21     69% 25   30.35 30.36      
Feb 25 10:36 E 6 10 Cloudy BKN028 OVC110 30 19     64% 24   30.35        
Feb 25 08:56 ENE 7 10 Clear CLR 27 14     58% 19   30.37 30.38      
Feb 25 07:56 ENE 6 10 Clear CLR 26 12     55% 19   30.4 30.41      
Feb 25 05:56 NNE 8 10 Clear CLR 26 11     52% 18   30.41 30.42      
Feb 25 04:56 E 6 10 Clear CLR 26 12     55% 19   30.4 30.42      
Feb 25 02:56 Calm 10 Clear CLR 27 19     72%     30.38 30.39      
Feb 25 01:56 3 10 Clear CLR 28 18     65% 24   30.36 30.37      
Feb 24 23:56 NNE 8 10 Clear CLR 30 19     63% 22   30.32 30.33      
Feb 24 22:56 N 6 10 Clear CLR 31 20     63% 25   30.3 30.32      
Feb 24 20:56 NNW 9 10 Clear CLR 34 21     59% 27   30.25 30.26      
Feb 24 19:56 NNW 3 10 Clear CLR 36 22     56% 33   30.21 30.22      
Feb 24 17:56 NW 8 10 Clear CLR 40 24     53% 34   30.15 30.16      
Feb 24 16:56 NW 9 10 Clear CLR 42 24     49% 37   30.12 30.13      
Feb 24 14:56 NW 13 10 Mostly Cloudy BKN060 47 28     48% 41   30.05 30.06      
Feb 24 13:56 W 11 10 Cloudy OVC055 47 26     44% 42   30.02 30.03      
Feb 24 10:56 6 10 Cloudy OVC055 44 32     62% 41   30.02 30.03      
Feb 24 08:56 WNW 5 10 Mostly Cloudy BKN048 40 36     86% 37   30 30.01      
Feb 24 07:56 W 6 10 Cloudy OVC046 36 35     96% 31   29.98 29.99      
Feb 24 07:14 W 6 10 Mostly Clear FEW004 36 34     93% 31   29.95        
Feb 24 06:20 WSW 7 10 Cloudy OVC004 34 34     100% 28   29.91        
Feb 24 05:56 WSW 9 10 Cloudy OVC006 34 33     96% 27   29.91 29.92      
Feb 24 04:56 W 6 10 Cloudy OVC006 35 34     96% 30   29.9 29.91      
Feb 24 02:56 SW 8 10 Cloudy OVC006 36 35     96% 30   29.9 29.91      
Feb 24 01:56 SW 8 10 Cloudy OVC006 35 34     96% 29   29.94 29.95      
Feb 24 01:34 SSW 8 10 Cloudy BKN006 OVC019 36 34     93% 29   29.95        
Feb 24 00:42 SSW 11 10 Cloudy SCT006 OVC023 36 34     93% 28   29.98        
Feb 23 23:56 SSW 11 5 Light Rain and Fog/Mist OVC004 34 34     100% 26   30.03 30.04      
Feb 23 23:33 SSW 11 2 Light Rain and Fog/Mist OVC004 34 34     100% 25   30.05        
Feb 23 23:10 SSW 15 4 Unknown Precipitation and Fog/Mist OVC004 34 34     100% 24   30.07        
Feb 23 22:56 SSW 13 2.5 Light Rain and Fog/Mist OVC004 34 33     96% 25   30.09 30.1      
Feb 23 22:52 SSW 11 2 Light Rain and Fog/Mist OVC004 34 34     100% 25   30.09        
Feb 23 22:39 SSW 15 3 Light Rain and Fog/Mist OVC004 34 34     100% 24   30.1        
Feb 23 22:26 SSW 11 2.5 Light Rain and Fog/Mist OVC004 34 34     100% 25   30.11        
Feb 23 22:12 SSW 15 3 Light Rain and Fog/Mist OVC004 34 32     93% 24   30.12        
Feb 23 21:09 SSW 16 4 Light Rain and Fog/Mist OVC008 34 30     86% 24   30.19        
Feb 23 20:56 S 16 2.5 Light Rain and Fog/Mist OVC008 33 31     92% 23   30.19 30.21      
Feb 23 20:53 S 15 2.5 Light Rain and Fog/Mist OVC008 34 30     86% 24   30.2        
Feb 23 20:41 S 14 6 Unknown Precipitation and Fog/Mist BKN010 BKN014 OVC030 34 30     86% 24   30.22        
Feb 23 19:56 S 16 10 Unknown Precipitation SCT018 BKN025 OVC041 32 29     88% 21   30.25 30.26      
Feb 23 18:30 S 15 10 Light Snow FEW025 BKN065 OVC080 30 27     86% 19   30.32        
Feb 23 17:56 S 13 10 Light Snow OVC025 32 26     78% 22   30.38 30.39      
Feb 23 16:56 S 9 10 Cloudy BKN026 OVC090 31 23     72% 23   30.44 30.45      
Feb 23 16:48 S 10 10 Cloudy BKN026 OVC095 30 23     74% 21   30.45        
Feb 23 14:56 S 10 10 Mostly Clear FEW030 30 19     63% 21   30.52 30.53      
Feb 23 13:56 SE 6 10 Clear CLR 30 16     55% 24   30.57 30.58      
Feb 23 11:56 E 8 10 Clear CLR 28 14     55% 20   30.66 30.67      
Feb 23 10:56 ESE 6 10 Clear CLR 27 11     50% 20   30.7 30.71      
Feb 23 08:56 E 9 10 Clear CLR 24 10     55% 14   30.75 30.76      
Feb 23 07:56 ENE 8 10 Clear CLR 23 9     54% 14   30.76 30.77      
Feb 23 05:56 ENE 6 10 Clear CLR 20 12     71% 12   30.75 30.76      
Feb 23 04:56 N 3 10 Clear CLR 21 13     70% 16   30.75 30.76      
Feb 23 02:56 N 5 10 Clear CLR 23 13     65% 17   30.72 30.73      
Feb 23 01:56 Calm 10 Clear CLR 24 13     62%     30.73 30.75      
Feb 22 23:56 N 7 10 Clear CLR 26 13     57% 18   30.7 30.71      
Feb 22 22:56 N 5 10 Clear CLR 27 12     53% 21   30.69 30.71      
Feb 22 20:56 NNW 6 10 Clear CLR 28 14     55% 22   30.67 30.68      
Jun 11 23:56 WSW 6 10 Clear   62 56     80%     29.84 29.85      
Notice The following observation data may not be complete
Jun 11 10:56   10 Clear CLR   59      %     29.86 29.87      
Jun 10 19:56 SSW 9 10 Clear CLR 59 51     75%     29.96 29.97      
Jun 09 05:56 E 6 10 Cloudy FEW050 BKN090 OVC110 51 45     79%     29.75 29.76 0    
Jun 08 08:56 SSW 10 10 Clear CLR 62 49     62%     30 30.01      
Jun 07 10:56 NNE 5 10 Clear CLR 65 41     42%     29.93 29.94      
Jun 06 03:12 NE 9 10 Mostly Cloudy BKN015 46 41     81% 42   29.99